This is the latest recevied weather packets stored in our database for station/object SQ5AAG-2. If no packets are shown the sender has not sent any weather packets the latest 10 day(s).
| Time | Temp. | Humidity | Pressure | Rain* | Wind** | Luminosity | Snow |
|---|---|---|---|---|---|---|---|
| 1777962086 | 21.67° C | 48% | 995.4 hPa | 0 mm | - | - | - |
| 1777961786 | 23.33° C | 47% | 995.5 hPa | 0 mm | - | - | - |
| 1777961485 | 23.89° C | 46% | 995.5 hPa | 0 mm | - | - | - |
| 1777961185 | 24.44° C | 47% | 995.6 hPa | 0 mm | - | - | - |
| 1777960884 | 23.89° C | 50% | 995.7 hPa | 0 mm | - | - | - |
| 1777960584 | 23.33° C | 51% | 995.6 hPa | 0 mm | - | - | - |
| 1777960284 | 22.78° C | 52% | 995.6 hPa | 0 mm | - | - | - |
| 1777959983 | 21.67° C | 53% | 995.4 hPa | 0 mm | - | - | - |
| 1777959687 | 21.67° C | 54% | 995.6 hPa | 0 mm | - | - | - |
| 1777959385 | 21.11° C | 56% | 995.6 hPa | 0 mm | - | - | - |
| 1777959082 | 20.56° C | 57% | 995.8 hPa | 0 mm | - | - | - |
| 1777958782 | 20° C | 58% | 995.7 hPa | 0 mm | - | - | - |
| 1777958482 | 19.44° C | 60% | 995.9 hPa | 0 mm | - | - | - |
| 1777958181 | 18.33° C | 61% | 995.8 hPa | 0 mm | - | - | - |
| 1777957881 | 17.78° C | 62% | 995.9 hPa | 0 mm | - | - | - |
| 1777957581 | 17.78° C | 62% | 995.9 hPa | 0 mm | - | - | - |
| 1777957280 | 17.78° C | 63% | 995.9 hPa | 0 mm | - | - | - |
| 1777956980 | 17.22° C | 64% | 995.9 hPa | 0 mm | - | - | - |
| 1777956681 | 16.67° C | 65% | 995.8 hPa | 0 mm | - | - | - |
| 1777956380 | 16.11° C | 66% | 995.8 hPa | 0 mm | - | - | - |
| 1777956079 | 16.11° C | 67% | 995.8 hPa | 0 mm | - | - | - |
| 1777955780 | 15° C | 67% | 995.9 hPa | 0 mm | - | - | - |
| 1777955479 | 15° C | 66% | 995.8 hPa | 0 mm | - | - | - |
| 1777955178 | 15.56° C | 66% | 995.8 hPa | 0 mm | - | - | - |
| 1777954878 | 16.11° C | 65% | 995.8 hPa | 0 mm | - | - | - |
* Rain latest hour (hover to see other rain measurements)
** Current wind speed in m/s (hover to see current wind gust speed)